Regional Weather Roundup
Issued by NWS

Home | Current Version | Previous Version | Graphics & Text | Print | Product List | Glossary On
Versions: 1 2 3 4 5 6 7 8 9 10 11 12 13 14 15 16 17 18 19 20 21 22 23 24 25 26 27 28 29 30 31 32 33 34 35 36 37 38 39 40 41 42 43 44 45 46 47 48 49 50
000
ASUS43 KOAX 031302
RWRNE

WEATHER ROUNDUP FOR NEBRASKA
NATIONAL WEATHER SERVICE OMAHA NE
700 AM CST TUE MAR 03 2015

NOTES: SATELLITE DATA IS BEING USED TO AUGMENT CLOUD COVER ABOVE
       12000 FEET.
       "FAIR" INDICATES FEW OR NO CLOUDS BELOW 12,000 FEET WITH NO
       SIGNIFICANT WEATHER AND/OR OBSTRUCTIONS TO VISIBILITY.

  * THESE STATIONS DO NOT REPORT WEATHER SUCH AS RAIN...SNOW OR FOG.

NEZ001>004-019>022-054>056-031400-
NEBRASKA PANHANDLE

CITY           SKY/WX    TMP DP  RH WIND       PRES   REMARKS
SCOTTSBLUFF    CLOUDY    24  19  81 N14       29.85R WCI  12
ALLIANCE       LGT SNOW  16  12  84 N29G37    29.82R FOG     WCI  -4
CHADRON        CLOUDY    17  12  80 NE26G36   29.92R HAZE    WCI  -2
KIMBALL        LGT SNOW  23  20  91 N16G28    29.76R WCI   9
SIDNEY         CLOUDY    23  19  85 N28G36    29.76R WCI   6
$$

NEZ057>060-069>072-079>082-031400-
SOUTHWEST NEBRASKA

CITY           SKY/WX    TMP DP  RH WIND       PRES   REMARKS
NORTH PLATTE   CLOUDY    29  26  89 W8        29.72R WCI  21
IMPERIAL         N/A     31  28  89 NW15      29.73R WCI  20
MCCOOK         CLOUDY    28  23  81 NW8       29.70R WCI  20
$$

NEZ005>010-023>029-035>040-094-031400-
NORTH CENTRAL NEBRASKA

CITY           SKY/WX    TMP DP  RH WIND       PRES   REMARKS
VALENTINE      LGT SNOW  19  14  81 N23G32    29.82R WCI   2
AINSWORTH      LGT SNOW  22  18  87 N35G43    29.77R WCI   2
BROKEN BOW     CLOUDY    29  23  78 W9        29.68R WCI  20
ORD            CLOUDY    27  21  78 W3        29.68R
$$

NEZ041-046>049-061>064-073>077-083>087-031400-
SOUTH CENTRAL NEBRASKA

CITY           SKY/WX    TMP DP  RH WIND       PRES   REMARKS
GRAND ISLAND   CLOUDY    29  24  82 NW8       29.68R WCI  21
HASTINGS       CLOUDY    30  24  78 NW9       29.66R WCI  22
HEBRON         CLOUDY    34  30  83 W7        29.64F WCI  28
KEARNEY *      CLOUDY    28  21  74 NW7       29.68R WCI  21
$$

NEZ011>018-030>034-042>045-031400-
NORTHEAST NEBRASKA

CITY           SKY/WX    TMP DP  RH WIND       PRES   REMARKS
NORFOLK        CLOUDY    29  27  92 W6        29.68R FOG     WCI  23
BLAIR          MIX PCPN  32  31  94 S6        29.64S WCI  26
COLUMBUS *     CLOUDY    30  21  69 W8        29.69R WCI  23
FREMONT        CLOUDY    32  32 100 W5        29.69R FOG     WCI  27
TEKAMAH        CLOUDY    31  29  92 SE7       29.64F FOG     WCI  24
$$

NEZ050>053-065>068-078-088>093-031400-
SOUTHEAST NEBRASKA

CITY           SKY/WX    TMP DP  RH WIND       PRES   REMARKS
LINCOLN        FOG       32  32 100 VRB3      29.67R VSB 3/4
OMAHA EPPLEY   FRZ DRZL  31  31 100 SE5       29.65F FOG     WCI  26
FALLS CITY     CLOUDY    36  34  92 S9        29.67F FOG     WCI  29
$$

NEZ044-045-051>053-067-031400-
OMAHA AREA

CITY           SKY/WX    TMP DP  RH WIND       PRES   REMARKS
OMAHA EPPLEY   FRZ DRZL  31  31 100 SE5       29.65F FOG     WCI  26
BLAIR          MIX PCPN  32  31  94 S6        29.64S WCI  26
FREMONT        CLOUDY    32  32 100 W5        29.69R FOG     WCI  27
$$


USA.gov is the U.S. government's official web portal to all federal, state and local government web resources and services.